Tarboro, NC

5:34 AM EST on November 25, 2017 (GMT -0500)
Tarboro-edgecombe

Weather History for KETC - March, 2014

Change the Weather History Date:

Monday, March 3, 2014

  Actual Average Record
Temperature  
Mean Temperature 40 °F -  
Max Temperature 59 °F 62 °F 80 °F (1976)
Min Temperature 21 °F 37 °F 15 °F (1980)
Degree Days  
Heating Degree Days 24    
Moisture  
Dew Point 33 °F    
Average Humidity 79    
Maximum Humidity 92    
Minimum Humidity 58    
Precipitation  
Precipitation 0.16 in - - ()
Sea Level Pressure  
Sea Level Pressure 30.05 in    
Wind  
Wind Speed 8 mph (NNE)    
Max Wind Speed 17 mph    
Max Gust Speed 26 mph    
Visibility 8 miles    
Events Rain , Snow    
Averages and records for this station are not official NWS values.
T = Trace of Precipitation, MM = Missing Value Source: NWS Daily Summary

Daily Weather History Graph

Daily Weather History Graph

Search for Another Location

Airport or City:

Trip Planner

Search our weather history database for the weather conditions in past years. The results will help you decide how hot, cold, wet, or windy it might be!

Date:

Astronomy

Mar. 03, 2014 Rise Set
Actual Time 6:37 AM EST 6:07 PM EST
Civil Twilight 6:12 AM EST 6:32 PM EST
Nautical Twilight 5:42 AM EST 7:02 PM EST
Astronomical Twilight 5:12 AM EST 7:32 PM EST
Moon 7:50 AM EST (3/3) 9:00 PM EST (3/3)
Length of Visible Light 12h 20m
Length of Day
11h 29m
Waxing Crescent, 8% of the Moon is Illuminated
Mar 3
Waxing Crescent
Mar 8
First Quarter
Mar 16
Full
Mar 23
Last Quarter
Mar 30
New

Hourly Weather History & Observations

Time (EST) Temp. Windchill Dew Point Humidity Pressure Visibility Wind Dir Wind Speed Gust Speed Precip Events Conditions
12:00 AM 59.4 °F - 44.4 °F 58% 29.92 in 10.0 mi SSW 5.8 mph - N/A   Clear
12:15 AM 59.2 °F - 44.4 °F 58% 29.92 in 10.0 mi South 6.9 mph - N/A   Clear
12:35 AM 59.2 °F - 44.8 °F 59% 29.92 in 10.0 mi SSW 5.8 mph - N/A   Clear
12:55 AM 59.0 °F - 45.0 °F 60% 29.92 in 10.0 mi SSW 5.8 mph - N/A   Clear
1:15 AM 59.0 °F - 45.1 °F 60% 29.91 in 10.0 mi SSW 5.8 mph - N/A   Clear
1:35 AM 59.0 °F - 45.5 °F 61% 29.90 in 10.0 mi SSW 6.9 mph - N/A   Clear
1:55 AM 58.5 °F - 45.5 °F 62% 29.89 in 10.0 mi SSW 4.6 mph - N/A   Clear
2:15 AM 58.1 °F - 45.5 °F 63% 29.88 in 10.0 mi SSW 4.6 mph - N/A   Clear
2:35 AM 57.9 °F - 45.5 °F 63% 29.88 in 10.0 mi SSW 5.8 mph - N/A   Clear
2:55 AM 57.6 °F - 45.5 °F 64% 29.86 in 10.0 mi SSW 4.6 mph - N/A   Clear
3:15 AM 57.4 °F - 45.7 °F 65% 29.85 in 10.0 mi SSW 5.8 mph - N/A   Clear
3:35 AM 57.2 °F - 45.7 °F 65% 29.86 in 10.0 mi SSW 5.8 mph - N/A   Clear
3:55 AM 57.2 °F - 45.7 °F 65% 29.85 in 10.0 mi SSW 6.9 mph - N/A   Clear
4:15 AM 57.0 °F - 45.9 °F 66% 29.86 in 10.0 mi SW 4.6 mph - N/A   Clear
4:35 AM 56.5 °F - 45.7 °F 67% 29.85 in 10.0 mi SSW 3.5 mph - N/A   Clear
4:55 AM 56.1 °F - 45.9 °F 68% 29.86 in 10.0 mi Calm Calm - N/A   Clear
5:15 AM 55.6 °F - 45.7 °F 69% 29.87 in 10.0 mi Calm Calm - N/A   Clear
5:35 AM 53.4 °F - 45.5 °F 75% 29.89 in 10.0 mi Calm Calm - N/A   Clear
5:55 AM 52.7 °F - 45.5 °F 76% 29.90 in 10.0 mi Calm Calm - N/A   Clear
6:15 AM 50.7 °F - 44.6 °F 80% 29.91 in 10.0 mi North 8.1 mph 17.3 mph N/A   Scattered Clouds
6:35 AM 48.0 °F - 41.4 °F 78% 29.93 in 10.0 mi NNE 11.5 mph - N/A   Scattered Clouds
6:55 AM 46.2 °F 41.7 °F 39.2 °F 76% 29.94 in 10.0 mi NNE 9.2 mph - N/A   Mostly Cloudy
7:15 AM 45.5 °F 40.3 °F 38.3 °F 76% 29.95 in 10.0 mi NE 10.4 mph - N/A   Overcast
7:35 AM 45.5 °F 40.8 °F 37.9 °F 75% 29.96 in 10.0 mi NNE 9.2 mph - N/A   Mostly Cloudy
7:55 AM 45.7 °F 41.0 °F 38.1 °F 75% 29.98 in 10.0 mi NNE 9.2 mph 17.3 mph N/A   Mostly Cloudy
8:15 AM 44.8 °F 38.0 °F 37.8 °F 76% 29.99 in 7.0 mi NE 15.0 mph 20.7 mph N/A   Overcast
8:35 AM 44.4 °F 37.5 °F 37.9 °F 78% 29.98 in 7.0 mi NE 15.0 mph 20.7 mph N/A   Overcast
8:55 AM 44.1 °F 37.7 °F 37.8 °F 78% 29.99 in 7.0 mi NE 12.7 mph 19.6 mph N/A   Overcast
9:15 AM 43.3 °F 36.1 °F 37.0 °F 78% 30.00 in 7.0 mi NNE 15.0 mph 20.7 mph N/A   Overcast
9:35 AM 42.6 °F 36.8 °F 36.5 °F 79% 30.00 in 7.0 mi NE 10.4 mph 19.6 mph N/A   Overcast
9:55 AM 42.1 °F 35.7 °F 36.0 °F 79% 30.02 in 7.0 mi NNE 11.5 mph 17.3 mph N/A   Overcast
10:15 AM 41.5 °F 34.2 °F 35.6 °F 79% 30.02 in 10.0 mi NNE 13.8 mph 23.0 mph N/A   Overcast
10:35 AM 40.8 °F 32.6 °F 35.4 °F 81% 30.02 in 7.0 mi NE 16.1 mph 21.9 mph N/A Rain Light Rain
10:55 AM 39.7 °F 31.9 °F 35.4 °F 85% 30.04 in 7.0 mi NNE 13.8 mph 18.4 mph N/A   Overcast
11:15 AM 39.2 °F 31.2 °F 34.5 °F 83% 30.04 in 10.0 mi NE 13.8 mph 23.0 mph N/A   Overcast
11:35 AM 38.8 °F 31.2 °F 34.0 °F 83% 30.02 in 7.0 mi ENE 12.7 mph 19.6 mph N/A Rain Light Rain
11:55 AM 37.9 °F 30.9 °F 34.5 °F 87% 30.01 in 4.0 mi ENE 10.4 mph - 0.03 in Rain Light Rain
12:15 PM 37.2 °F 31.2 °F 34.7 °F 91% 30.03 in 4.0 mi NNE 8.1 mph 19.6 mph 0.02 in Rain Rain
12:35 PM 36.5 °F 28.2 °F 34.2 °F 91% 30.03 in 3.0 mi NNE 12.7 mph 20.7 mph 0.06 in Rain Rain
12:55 PM 36.0 °F 27.1 °F 33.4 °F 91% 30.03 in 5.0 mi NE 13.8 mph 20.7 mph 0.09 in Rain Light Rain
1:15 PM 35.4 °F 26.4 °F 32.7 °F 90% 30.03 in 10.0 mi NNE 13.8 mph 19.6 mph N/A Rain Light Rain
1:35 PM 35.1 °F 26.4 °F 32.4 °F 90% 30.05 in 5.0 mi NNE 12.7 mph 17.3 mph N/A Snow Light Snow
1:55 PM 33.6 °F 25.6 °F 31.3 °F 91% 30.05 in 5.0 mi NNE 10.4 mph 21.9 mph 0.01 in Snow Light Snow
2:15 PM 32.9 °F 24.1 °F 30.7 °F 92% 30.05 in 10.0 mi NNE 11.5 mph 21.9 mph N/A   Overcast
2:35 PM 32.4 °F 21.7 °F 29.8 °F 90% 30.06 in 7.0 mi NNE 16.1 mph 20.7 mph N/A Snow Light Snow
2:55 PM 32.0 °F 22.5 °F 29.3 °F 90% 30.08 in 7.0 mi North 12.7 mph 17.3 mph N/A   Overcast
3:15 PM 31.5 °F 21.8 °F 28.9 °F 90% 30.09 in 10.0 mi North 12.7 mph 20.7 mph N/A   Overcast
3:35 PM 30.6 °F 21.2 °F 27.5 °F 88% 30.11 in 10.0 mi NNE 11.5 mph 25.3 mph N/A   Overcast
3:55 PM 29.8 °F 20.9 °F 26.8 °F 88% 30.11 in 5.0 mi NNE 10.4 mph 19.6 mph N/A   Overcast
4:15 PM 29.7 °F 20.1 °F 26.8 °F 89% 30.13 in 5.0 mi North 11.5 mph 23.0 mph N/A   Overcast
4:35 PM 29.3 °F 18.6 °F 26.4 °F 89% 30.14 in 2.5 mi North 13.8 mph 17.3 mph N/A Snow Light Snow
4:55 PM 28.8 °F 19.0 °F 25.9 °F 89% 30.14 in 5.0 mi North 11.5 mph - N/A   Overcast
5:15 PM 28.4 °F 19.7 °F 25.7 °F 90% 30.15 in 5.0 mi North 9.2 mph - N/A   Overcast
5:40 PM 27.9 °F 19.1 °F 25.3 °F 90% 30.18 in 7.0 mi North 9.2 mph - N/A   Overcast
5:55 PM 27.5 °F 16.8 °F 24.8 °F 90% 30.18 in 10.0 mi North 12.7 mph 17.3 mph N/A Snow Light Snow
6:15 PM 27.3 °F 17.1 °F 24.4 °F 89% 30.19 in 7.0 mi North 11.5 mph - N/A   Overcast
6:35 PM 27.0 °F 19.5 °F 24.1 °F 89% 30.19 in 10.0 mi North 6.9 mph - N/A   Overcast
6:55 PM 26.4 °F 15.5 °F 23.5 °F 89% 30.21 in 7.0 mi North 12.7 mph 19.6 mph N/A   Overcast
7:15 PM 25.7 °F 16.4 °F 22.3 °F 87% 30.23 in 10.0 mi North 9.2 mph - N/A   Overcast
7:35 PM 25.5 °F 12.9 °F 21.7 °F 86% 30.22 in 10.0 mi North 16.1 mph 21.9 mph N/A Snow Light Snow
7:55 PM 25.2 °F 15.7 °F 21.0 °F 84% 30.25 in 10.0 mi North 9.2 mph 19.6 mph N/A   Overcast
8:15 PM 25.0 °F 15.5 °F 21.0 °F 85% 30.26 in 4.0 mi North 9.2 mph 18.4 mph 0.01 in Snow Light Snow
8:35 PM 24.6 °F 13.8 °F 20.8 °F 86% 30.26 in 10.0 mi North 11.5 mph 25.3 mph 0.03 in Snow Light Snow
8:55 PM 23.9 °F 11.7 °F 19.6 °F 84% 30.28 in 10.0 mi NNE 13.8 mph 26.5 mph 0.03 in   Overcast
9:15 PM 23.9 °F 12.9 °F 19.4 °F 83% 30.28 in 10.0 mi North 11.5 mph 24.2 mph N/A   Overcast
9:35 PM 23.9 °F 10.3 °F 19.4 °F 83% 30.28 in 10.0 mi NNE 17.3 mph - N/A   Overcast
9:55 PM 23.7 °F 12.1 °F 19.4 °F 84% 30.29 in 10.0 mi North 12.7 mph 20.7 mph N/A   Overcast
10:20 PM 23.5 °F 11.8 °F 18.9 °F 82% 30.29 in 10.0 mi North 12.7 mph 18.4 mph N/A   Overcast
10:35 PM 23.4 °F 12.2 °F 18.5 °F 82% 30.30 in 10.0 mi North 11.5 mph 18.4 mph N/A   Overcast
10:55 PM 23.0 °F 11.7 °F 17.4 °F 79% 30.31 in 10.0 mi North 11.5 mph 23.0 mph N/A   Overcast
11:15 PM 22.8 °F 9.9 °F 16.5 °F 77% 30.32 in 10.0 mi North 15.0 mph 19.6 mph N/A   Overcast
11:35 PM 22.1 °F 10.6 °F 15.6 °F 76% 30.31 in 10.0 mi NNE 11.5 mph - N/A   Scattered Clouds
11:55 PM 21.6 °F 11.3 °F 15.4 °F 77% 30.30 in 10.0 mi North 9.2 mph 16.1 mph N/A   Clear